Location: Cahas Mountain Overlook
(37.0833°N, 80.1000°W)
Time: 03:21:32
(UTC-05:00)

A-11 Canister half - Visible Passes

Search period start: 05 December 2023 00:00
Search period end: 15 December 2023 00:00
Orbit: 1525 x 1684 km, 47.3° (Epoch: 04 December)

Date Brightness Start Highest point End Pass type
(mag) Time Alt. Az. Time Alt. Az. Time Alt. Az.
05 Dec 10.9 04:00:25 10° S 04:00:25 10° S 04:00:32 10° S visible
05 Dec 9.1 18:58:55 10° SW 19:09:07 89° SSE 19:13:52 38° ENE visible
05 Dec 10.0 21:05:22 10° W 21:12:10 40° NW 21:12:10 40° NW visible
06 Dec 9.1 18:37:09 10° SW 18:47:20 87° SSE 18:53:27 29° ENE visible
06 Dec 9.7 20:43:30 10° W 20:51:46 48° NW 20:51:46 48° NW visible
07 Dec 9.1 18:15:25 10° SW 18:25:34 84° SE 18:33:01 22° ENE visible
07 Dec 9.5 20:21:37 10° W 20:31:19 52° NNW 20:31:19 52° NNW visible
07 Dec 11.2 22:28:35 10° WNW 22:29:37 14° WNW 22:29:37 14° WNW visible
08 Dec 9.2 17:53:41 10° SW 18:03:47 81° SE 18:12:32 16° ENE visible
08 Dec 9.4 19:59:45 10° W 20:09:39 53° NNW 20:10:50 51° N visible
08 Dec 10.9 22:06:46 10° WNW 22:09:08 19° WNW 22:09:08 19° WNW visible
09 Dec 9.2 17:31:57 10° SW 17:42:02 77° SE 17:52:03 10° ENE visible
09 Dec 9.4 19:37:53 10° W 19:47:48 54° NNW 19:50:21 45° NNE visible
09 Dec 10.6 21:44:55 10° WNW 21:48:38 25° NW 21:48:38 25° NW visible
10 Dec 9.5 19:16:02 10° W 19:25:58 55° NNW 19:29:50 38° NE visible
10 Dec 10.3 21:23:04 10° WNW 21:28:07 31° NW 21:28:07 31° NW visible
11 Dec 9.5 18:54:10 10° W 19:04:08 57° NNW 19:09:18 31° NE visible
11 Dec 10.0 21:01:14 10° WNW 21:07:35 37° NW 21:07:35 37° NW visible
12 Dec 9.5 18:32:19 10° W 18:42:17 58° NNW 18:48:46 25° NE visible
12 Dec 9.8 20:39:23 10° WNW 20:47:03 43° NNW 20:47:03 43° NNW visible
13 Dec 9.5 18:10:28 10° W 18:20:28 59° NNW 18:28:13 19° NE visible
13 Dec 9.6 20:17:32 10° WNW 20:26:30 47° N 20:26:30 47° N visible
13 Dec 11.1 22:23:33 10° WNW 22:24:48 15° NW 22:24:48 15° NW visible
14 Dec 9.5 17:48:38 10° W 17:58:38 61° NNW 18:07:41 14° ENE visible
14 Dec 9.5 19:55:41 10° WNW 20:05:26 47° N 20:05:58 47° NNE visible
14 Dec 10.9 22:01:46 10° WNW 22:04:15 20° NW 22:04:15 20° NW visible
